Retour au catalogue

CZ-7A R/B

LostGTO
NORAD 100173·ROCKET BODY·🇨🇳 China

Lancé Jul 29, 2026 depuis Wenchang Space Launch Site

Loading…

TLE

PériméSource: Space-Track

Époque: Aug 9, 2026, 21:55 UTC

1 A0173U 26172B   26221.91326750  .00147862  94668-6  24260-2 0  9998
2 A0173  15.4520 140.5842 7211714 188.0097 146.3723  2.42008571   296

Suivez CZ-7A R/B en temps réel avec AllMySat

Download on the App Store